When you browse on this site, cookies collect data to enhance your experience and personalize the content and advertising you see.
Visit our Privacy Policy to learn more. By continuing to use the site, you agree to this use of cookies and data.
  • En España
  • Lista de países
  • Para 7 días
  • Temperatura del agua
  • El tiempo en el mapa
  • Informadores
  • user-avatar
    Iniciar sesión

    Tiempo cada hora Boma

    Hoy, 29 Febrero, Sábado

    Tiempo Temperatura Precipitaciones Viento Presión Humedad
    00:00 +24°C° 0 mm 1 mps 699 mmHg 30%
    01:00 +22°C° 0 mm 1 mps 699 mmHg 31%
    02:00 +21°C° 0 mm 1 mps 699 mmHg 33%
    03:00 +18°C° 0 mm 0 mps 698 mmHg 34%
    04:00 +17°C° 0 mm 0 mps 698 mmHg 36%
    05:00 +17°C° 0 mm 0 mps 698 mmHg 36%
    06:00 +17°C° 0 mm 0 mps 698 mmHg 37%
    07:00 +18°C° 0 mm 0 mps 699 mmHg 38%
    08:00 +23°C° 0 mm 0 mps 700 mmHg 30%
    09:00 +29°C° 0 mm 0 mps 700 mmHg 22%
    10:00 +34°C° 0 mm 0 mps 701 mmHg 13%
    11:00 +39°C° 0 mm 1 mps 701 mmHg 12%
    12:00 +41°C° 0 mm 1 mps 700 mmHg 10%
    13:00 +43°C° 0 mm 2 mps 699 mmHg 9%
    14:00 +43°C° 0 mm 2 mps 698 mmHg 9%
    15:00 +43°C° 0 mm 2 mps 698 mmHg 9%
    16:00 +43°C° 0 mm 2 mps 697 mmHg 9%
    17:00 +40°C° 0 mm 1 mps 697 mmHg 11%
    18:00 +35°C° 0 mm 1 mps 697 mmHg 14%
    19:00 +32°C° 0 mm 1 mps 697 mmHg 17%
    20:00 +30°C° 0 mm 1 mps 698 mmHg 19%
    21:00 +28°C° 0 mm 1 mps 698 mmHg 21%
    22:00 +27°C° 0 mm 1 mps 699 mmHg 24%
    23:00 +26°C° 0 mm 1 mps 699 mmHg 27%

    Mañana, 1 Marzo, Domingo

    Tiempo Temperatura Precipitaciones Viento Presión Humedad
    00:00 +25°C° 0 mm 1 mps 699 mmHg 29%
    01:00 +23°C° 0 mm 1 mps 698 mmHg 32%
    02:00 +22°C° 0 mm 1 mps 698 mmHg 53%
    03:00 +21°C° 0 mm 1 mps 698 mmHg 73%
    04:00 +20°C° 0 mm 1 mps 698 mmHg 94%
    05:00 +22°C° 0 mm 1 mps 699 mmHg 92%
    06:00 +23°C° 0 mm 1 mps 699 mmHg 91%
    07:00 +24°C° 0 mm 1 mps 700 mmHg 90%
    08:00 +26°C° 0 mm 1 mps 701 mmHg 77%
    09:00 +29°C° 0 mm 1 mps 701 mmHg 64%
    10:00 +32°C° 0 mm 1 mps 702 mmHg 51%
    11:00 +36°C° 0 mm 1 mps 701 mmHg 40%
    12:00 +38°C° 0 mm 0 mps 701 mmHg 28%
    13:00 +42°C° 0 mm 0 mps 701 mmHg 16%
    14:00 +44°C° 0 mm 1 mps 699 mmHg 16%
    15:00 +42°C° 0 mm 1 mps 698 mmHg 16%
    16:00 +41°C° 0 mm 1 mps 697 mmHg 16%
    17:00 +37°C° 0 mm 1 mps 697 mmHg 20%
    18:00 +34°C° 0 mm 1 mps 697 mmHg 24%
    19:00 +29°C° 0 mm 0 mps 697 mmHg 28%
    20:00 +30°C° 0 mm 1 mps 698 mmHg 33%
    21:00 +28°C° 0 mm 1 mps 699 mmHg 38%
    22:00 +27°C° 0 mm 2 mps 699 mmHg 43%
    23:00 +26°C° 0 mm 1 mps 699 mmHg 56%

    Pasado mañana, 2 Marzo, Lunes

    Tiempo Temperatura Precipitaciones Viento Presión Humedad
    00:00 +25°C° 0 mm 1 mps 699 mmHg 69%
    01:00 +24°C° 0 mm 1 mps 700 mmHg 81%
    02:00 +23°C° 0 mm 1 mps 700 mmHg 87%
    03:00 +22°C° 0 mm 1 mps 699 mmHg 93%
    04:00 +20°C° 0 mm 0 mps 699 mmHg 98%
    05:00 +22°C° 0 mm 1 mps 700 mmHg 97%
    06:00 +22°C° 0 mm 1 mps 700 mmHg 96%
    07:00 +22°C° 0 mm 1 mps 701 mmHg 95%
    08:00 +25°C° 0 mm 1 mps 701 mmHg 83%
    09:00 +27°C° 0 mm 1 mps 702 mmHg 71%
    10:00 +30°C° 0 mm 2 mps 702 mmHg 59%
    11:00 +33°C° 0 mm 1 mps 702 mmHg 47%
    12:00 +36°C° 0 mm 1 mps 701 mmHg 36%
    13:00 +40°C° 0 mm 1 mps 701 mmHg 24%
    14:00 +40°C° 0 mm 1 mps 700 mmHg 23%
    15:00 +40°C° 0 mm 1 mps 699 mmHg 22%
    16:00 +39°C° 0 mm 1 mps 699 mmHg 21%
    17:00 +35°C° 0 mm 1 mps 699 mmHg 28%
    18:00 +32°C° 0 mm 1 mps 698 mmHg 35%
    19:00 +29°C° 0 mm 1 mps 698 mmHg 43%
    20:00 +28°C° 0 mm 1 mps 699 mmHg 49%
    21:00 +27°C° 0 mm 1 mps 700 mmHg 55%
    22:00 +26°C° 0 mm 2 mps 700 mmHg 61%
    23:00 +25°C° 0 mm 1 mps 700 mmHg 69%

    3 Marzo, Martes

    Tiempo Temperatura Precipitaciones Viento Presión Humedad
    00:00 +24°C° 0 mm 1 mps 700 mmHg 78%
    01:00 +22°C° 0 mm 1 mps 700 mmHg 86%
    02:00 +22°C° 0 mm 1 mps 700 mmHg 90%
    03:00 +21°C° 0 mm 1 mps 700 mmHg 94%
    04:00 +18°C° 0 mm 0 mps 700 mmHg 98%
    05:00 +19°C° 0 mm 0 mps 700 mmHg 97%
    06:00 +19°C° 0 mm 0 mps 701 mmHg 96%
    07:00 +19°C° 0 mm 0 mps 701 mmHg 95%
    08:00 +23°C° 0 mm 0 mps 702 mmHg 79%
    09:00 +28°C° 0 mm 1 mps 702 mmHg 64%
    10:00 +32°C° 0 mm 2 mps 703 mmHg 48%
    11:00 +35°C° 0 mm 1 mps 702 mmHg 39%
    12:00 +39°C° 0 mm 1 mps 702 mmHg 30%
    13:00 +42°C° 0 mm 1 mps 701 mmHg 22%
    14:00 +41°C° 0 mm 1 mps 700 mmHg 23%
    15:00 +39°C° 0 mm 1 mps 699 mmHg 24%
    16:00 +37°C° 0 mm 1 mps 698 mmHg 25%
    17:00 +35°C° 0 mm 1 mps 698 mmHg 30%
    18:00 +32°C° 0 mm 1 mps 698 mmHg 35%
    19:00 +28°C° 0 mm 0 mps 699 mmHg 40%
    20:00 +27°C° 0 mm 0 mps 699 mmHg 42%
    21:00 +28°C° 0 mm 1 mps 700 mmHg 45%
    22:00 +27°C° 0 mm 1 mps 700 mmHg 47%
    23:00 +26°C° 0 mm 1 mps 700 mmHg 53%

    4 Marzo, Miércoles

    Tiempo Temperatura Precipitaciones Viento Presión Humedad
    00:00 +24°C° 0 mm 0 mps 700 mmHg 58%
    01:00 +23°C° 0 mm 0 mps 700 mmHg 63%
    02:00 +22°C° 0 mm 0 mps 700 mmHg 70%
    03:00 +23°C° 0 mm 1 mps 699 mmHg 78%
    04:00 +22°C° 0 mm 1 mps 699 mmHg 85%
    05:00 +22°C° 0 mm 1 mps 700 mmHg 87%
    06:00 +22°C° 0 mm 1 mps 700 mmHg 90%
    07:00 +20°C° 0 mm 0 mps 700 mmHg 92%
    08:00 +25°C° 0 mm 0 mps 701 mmHg 73%
    09:00 +31°C° 0 mm 1 mps 702 mmHg 54%
    10:00 +36°C° 0 mm 1 mps 703 mmHg 35%
    11:00 +39°C° 0 mm 1 mps 702 mmHg 28%
    12:00 +42°C° 0 mm 1 mps 701 mmHg 21%
    13:00 +44°C° 0 mm 1 mps 701 mmHg 14%
    14:00 +43°C° 0 mm 1 mps 700 mmHg 15%
    15:00 +42°C° 0 mm 1 mps 699 mmHg 16%
    16:00 +40°C° 0 mm 1 mps 698 mmHg 17%
    17:00 +36°C° 0 mm 1 mps 698 mmHg 22%
    18:00 +34°C° 0 mm 1 mps 698 mmHg 26%
    19:00 +31°C° 0 mm 1 mps 698 mmHg 31%
    20:00 +29°C° 0 mm 1 mps 699 mmHg 37%
    21:00 +27°C° 0 mm 1 mps 699 mmHg 44%
    22:00 +24°C° 0 mm 0 mps 699 mmHg 50%
    23:00 +23°C° 0 mm 0 mps 699 mmHg 56%

    5 Marzo, Jueves

    Tiempo Temperatura Precipitaciones Viento Presión Humedad
    00:00 +24°C° 0 mm 1 mps 699 mmHg 61%
    01:00 +23°C° 0 mm 1 mps 699 mmHg 66%
    02:00 +23°C° 0 mm 1 mps 699 mmHg 75%
    03:00 +22°C° 0 mm 1 mps 699 mmHg 84%
    04:00 +21°C° 0 mm 1 mps 698 mmHg 93%
    05:00 +19°C° 0 mm 0 mps 699 mmHg 93%
    06:00 +20°C° 0 mm 0 mps 699 mmHg 94%
    07:00 +20°C° 0 mm 0 mps 700 mmHg 95%
    08:00 +23°C° 0.1 mm 0 mps 700 mmHg 82%
    09:00 +28°C° 0.1 mm 1 mps 701 mmHg 70%
    10:00 +32°C° 0.1 mm 1 mps 701 mmHg 57%
    11:00 +35°C° 0 mm 1 mps 701 mmHg 45%
    12:00 +39°C° 0 mm 1 mps 700 mmHg 34%
    13:00 +42°C° 0 mm 1 mps 700 mmHg 22%
    14:00 +41°C° 0 mm 1 mps 699 mmHg 24%
    15:00 +40°C° 0 mm 1 mps 698 mmHg 25%
    16:00 +37°C° 0 mm 1 mps 697 mmHg 26%
    17:00 +35°C° 0 mm 1 mps 697 mmHg 31%
    18:00 +32°C° 0 mm 1 mps 697 mmHg 36%
    19:00 +30°C° 0 mm 1 mps 697 mmHg 41%
    20:00 +28°C° 0 mm 1 mps 698 mmHg 51%
    21:00 +26°C° 0 mm 1 mps 698 mmHg 60%
    22:00 +22°C° 0 mm 0 mps 699 mmHg 70%
    23:00 +22°C° 0 mm 0 mps 698 mmHg 75%
    Mostrar más